Weather History for Kalispell, MT

Change the Weather History Date:

Wednesday, December 5, 2012

  Actual Average Record
Temperature  
Mean Temperature 38 °F 25 °F  
Max Temperature 47 °F 32 °F 47 °F (1989)
Min Temperature 28 °F 18 °F -8 °F (1972)
Degree Days  
Heating Degree Days 27 40  
Month to date heating degree days 127 198  
Since 1 July heating degree days 2107 2402  
Cooling Degree Days 0 0  
Month to date cooling degree days 0 0  
Year to date cooling degree days 192 147  
Moisture  
Dew Point 27 °F    
Average Humidity 63    
Maximum Humidity 89    
Minimum Humidity 37    
Precipitation  
Precipitation 0.06 in 0.05 in 0.60 in (1911)
Month to date precipitation 0.50 0.25  
Year to date precipitation 19.64 15.68  
Snow  
Snow 0.00 in - - ()
Month to date snowfall 0.0  
Year to date snowfall 27.4  
Since 1 July snowfall 2.3  
Snow Depth 0.00 in    
Sea Level Pressure  
Sea Level Pressure 29.92 in    
Wind  
Wind Speed 11 mph (SW)    
Max Wind Speed 28 mph    
Max Gust Speed 37 mph    
Visibility 10 miles    
Events Rain    
T = Trace of Precipitation, MM = Missing Value Source: NWS Daily Summary

Daily Weather History Graph

Daily Weather History Graph

Search for Another Location

Airport:

Trip Planner

Search our weather history database for the weather conditions in past years. The results will help you decide how hot, cold, wet, or windy it might be!

Date:

Astronomy

Dec. 05, 2012 Rise Set
Actual Time 8:12 AM MST 4:43 PM MST
Civil Twilight 7:36 AM MST 5:19 PM MST
Nautical Twilight 6:56 AM MST 5:58 PM MST
Astronomical Twilight 6:19 AM MST 6:36 PM MST
Moon No Moon Rise 12:15 PM MST (12/5)
Length of Visible Light 9h 43m
Length of Day
8h 30m
Waning Gibbous, 59% of the Moon is Illuminated
Dec 5
Waning Gibbous
Dec 6
Last Quarter
Dec 13
New
Dec 19
First Quarter
Dec 28
Full

Hourly Weather History & Observations

Time (MST) Temp. Windchill Dew Point Humidity Pressure Visibility Wind Dir Wind Speed Gust Speed Precip Events Conditions
12:55 AM 46.9 °F - 37.9 °F 71% 29.70 in 10.0 mi South 13.8 mph - N/A   Overcast
2:55 AM 46.9 °F - 39.0 °F 74% 29.68 in 10.0 mi South 10.4 mph - 0.00 in   Overcast
3:55 AM 44.1 °F 41.5 °F 39.9 °F 85% 29.68 in 10.0 mi SW 4.6 mph - 0.01 in Rain Light Rain
4:55 AM 44.6 °F 40.2 °F 41.0 °F 87% 29.65 in 10.0 mi SW 8.1 mph - N/A Rain Light Rain
5:55 AM 44.1 °F 38.6 °F 41.0 °F 89% 29.68 in 10.0 mi SSW 10.4 mph - 0.01 in Rain Light Rain
7:55 AM 43.0 °F 35.1 °F 34.0 °F 71% 29.72 in 10.0 mi SW 17.3 mph 29.9 mph N/A   Mostly Cloudy
8:55 AM 43.0 °F - 33.1 °F 68% 29.79 in 10.0 mi Calm Calm - 0.00 in   Mostly Cloudy
9:55 AM 43.0 °F 36.0 °F 27.0 °F 53% 29.81 in 10.0 mi WSW 13.8 mph 21.9 mph N/A   Mostly Cloudy
10:55 AM 44.1 °F 35.0 °F 19.9 °F 38% 29.86 in 10.0 mi WSW 24.2 mph 34.5 mph N/A   Scattered Clouds
11:55 AM 45.0 °F 37.6 °F 19.9 °F 37% 29.90 in 10.0 mi WSW 17.3 mph 26.5 mph N/A   Overcast
12:55 PM 42.1 °F 34.9 °F 19.9 °F 41% 29.93 in 10.0 mi West 13.8 mph 19.6 mph N/A   Scattered Clouds
1:55 PM 42.1 °F 33.9 °F 19.0 °F 40% 29.95 in 10.0 mi WSW 17.3 mph 26.5 mph N/A   Partly Cloudy
2:55 PM 42.1 °F 33.3 °F 19.0 °F 40% 29.98 in 10.0 mi SW 19.6 mph 27.6 mph N/A   Mostly Cloudy
3:55 PM 39.9 °F 32.5 °F 21.0 °F 47% 30.03 in 10.0 mi SW 12.7 mph - N/A   Overcast
4:55 PM 36.0 °F 27.1 °F 21.0 °F 55% 30.05 in 10.0 mi SW 13.8 mph - N/A   Clear
5:55 PM 37.0 °F 31.6 °F 19.9 °F 50% 30.08 in 10.0 mi SW 6.9 mph 17.3 mph N/A   Clear
6:55 PM 34.0 °F 26.0 °F 23.0 °F 64% 30.11 in 10.0 mi SW 10.4 mph - N/A   Mostly Cloudy
7:55 PM 34.0 °F 26.6 °F 23.0 °F 64% 30.12 in 10.0 mi SW 9.2 mph - N/A   Overcast
8:55 PM 33.1 °F 26.1 °F 23.0 °F 66% 30.12 in 10.0 mi SW 8.1 mph - N/A   Partly Cloudy
9:55 PM 28.0 °F 21.7 °F 23.0 °F 81% 30.14 in 10.0 mi SSW 5.8 mph - N/A   Clear
10:55 PM 30.0 °F 26.5 °F 21.9 °F 72% 30.13 in 10.0 mi South 3.5 mph - N/A   Clear
11:55 PM 30.9 °F 27.5 °F 21.0 °F 67% 30.13 in 10.0 mi SE 3.5 mph - N/A   Clear